Orbital Elements at Epoch 2459000.5 (2020-May-31.0) TDB
Reference: JPL 21 (heliocentric ecliptic J2000)
Element | Value | Uncertainty (1-sigma) | Units |
e | .2289330544422018 | 4.9675e-08 | |
a | 2.656812632278398 | 1.0379e-08 | au |
q | 2.048580401290278 | 1.3186e-07 | au |
i | 11.51447389798633 | 3.8489e-06 | deg |
node | 145.0526725574171 | 2.6319e-05 | deg |
peri | 251.5292012074796 | 2.7664e-05 | deg |
M | 326.5798044524226 | 7.4061e-06 | deg |
tp | 2459147.340651967368 (2020-Oct-24.84065197) | 3.2333e-05 | TDB |
period | 1581.757193281426 4.33 | 9.2686e-06 2.538e-08 | d yr |
n | .2275949820421957 | 1.3336e-09 | deg/d |
Q | 3.265044863266518 | 1.2755e-08 | au |
|
| | Orbit Determination Parameters
Additional Information
|